User: anonymous   Login
Location: *
(42.3442°N, 9.2072°E)
Time: 13:14:40
(UTC+00:00)
Language:

SJ-6B - Orbit

View from above orbital plane
View from above orbital plane
View from above satellite
View from above satellite

Ground track
Ground track

The orbit data is extracted from the following two-line orbital elements,

1 28415U 04035C   20191.88037073 +.00000091 +00000-0 +10319-4 0  9999
2 28415 097.6115 233.2106 0049997 276.2300 083.3234 15.06873115867018
Epoch (UTC): 09 July 2020 21:07:44
Eccentricity: 0.0049997
inclination: 97.6115°
perigee height: 511 km
apogee height: 580 km
right ascension of ascending node: 233.2106°
argument of perigee: 276.2300°
revolutions per day: 15.06873115
mean anomaly at epoch: 83.3234°
orbit number at epoch: 86701

The dashed part of the orbit path shows where the satellite is in the earth's shadow,  

DLR